Location: Peebles
(55.6412°N, 3.1714°W)
Time: 20:01:07
(UTC+01:00)

Envisat - Pass Details

Date: 23 February 2024
Orbit: 762 x 764 km, 98.3° (Epoch: 21 April)

Event Time Altitude Azimuth Distance (km) Brightness Sun altitude
Rises 06:20:22 0° 9° (N) 3,247 6.3 -9.0°
Reaches altitude 10° 06:23:58 10° 342° (NNW) 2,316 5.3 -8.5°
Maximum altitude 06:26:10 13° 317° (NW) 2,116 4.9 -8.2°
Drops below altitude 10° 06:28:22 10° 291° (WNW) 2,310 4.9 -7.9°
Enters shadow 06:28:43 - 287° (WNW) 2,376 4.9 -7.9°
